SCP
-0 -0 -0 -0 0 0 0 0 -0 -0 -0 -0 -0 -0 -0 -0 0 0 -0 0 -0 -0 -0 -0 -0 -0 -0 -0 -0 -0 -0 -0 -0 -0 -0 -0 -0 0 0 0 0 0 0 0 0 0 0 0 0
-0 -0 -0 -0 0 0 0 -0 -0 -0 -0 0 -0 -0 -0 0 0 0 0 -0 -1 -0 -0 -0 -0 -0 -0 -0 -0 -0 -0 -0 0 0 0 0 0 0 0 0 0 0 0 0 0 0 0 0 0
-0 -0 -0 0 -0 0 -0 0 -0 -0 0 -0 -0 -0 -0 0 0 0 -0 -0 -0 -0 -0 -0 -0 -0 -0 -0 -0 -0 -0 0 0 0 0 0 0 0 0 0 0 0 0 0 0 0 0 0 -0
0 0 -0 -0 -0 0 0 -0 -0 -0 0 -0 -0 -0 -0 0 0 -0 -0 -0 -0 -0 -0 -0 -0 -0 -0 -0 -0 -0 0 0 0 0 0 0 0 0 0 0 -0 -0 -0 -0 -0 -0 -0 -0 -0
0 0 -0 -0 -0 0 -0 -0 0 -0 -0 -0 -0 -0 0 0 -0 -0 -0 -0 0 -1 -0 -0 -0 -0 -0 -0 -0 -0 0 0 0 -0 0 0 0 0 -0 -0 -0 -0 -0 -0 -0 -0 -0 -0 -0
0 0 -0 -0 -0 0 0 -0 0 0 0 0 0 -0 0 0 -0 -0 -0 -0 -0 -1 -0 -0 -0 -0 -0 -0 -0 -0 -0 0 0 -0 -0 -0 -0 -0 -0 -0 -0 -0 -0 -0 -0 0 0 0 0
0 0 -0 -0 0 0 -0 -0 0 0 -0 0 0 0 0 0 -0 -0 0 0 -0 -0 -0 -0 -0 -0 -0 0 0 0 0 -0 -0 -0 -0 -0 -0 -0 -0 -0 -0 0 0 0 0 0 0 0 0
0 0 -0 -0 0 0 0 -0 0 0 -0 0 0 0 0 -0 -0 -0 -0 -0 -0 -0 -0 -0 -0 -0 0 0 0 0 0 0 -0 -0 -0 0 -0 -0 -0 0 0 0 0 0 0 0 0 0 0
-0 0 -0 -0 0 0 -0 -0 -0 0 0 -0 0 0 -0 -0 -0 -0 -0 0 -0 -0 -0 -0 -0 -0 0 0 0 0 0 0 -0 -0 -0 -0 -0 0 0 0 0 0 0 0 0 0 0 0 0
-0 0 -0 -0 0 0 -0 -0 -0 0 0 0 0 -0 -0 -0 -0 -0 -0 -0 -0 -0 -0 -0 -0 -0 -0 0 0 0 0 0 0 -0 0 0 0 0 0 0 0 0 0 0 0 1 1 1 0
0 0 -0 -0 0 0 -0 -0 0 -0 0 0 -0 -0 -0 -0 -0 -0 -0 -0 -0 -0 0 -0 0 0 0 0 -0 -0 0 -0 0 0 0 0 0 0 0 0 0 0 0 0 0 0 0 0 0
0 0 -0 -0 0 0 0 0 0 -0 0 0 -0 -0 0 -0 -0 -0 -0 -0 -0 -0 0 0 0 0 -0 0 -0 0 0 0 0 0 0 1 1 1 1 0 0 0 0 0 0 0 0 0 0
-0 0 -0 0 0 -0 0 0 0 -0 0 -0 0 -0 0 0 0 0 0 0 -0 -0 0 0 -0 0 0 0 0 0 0 0 0 1 0 1 1 1 1 1 0 0 0 0 0 0 0 0 0
-0 0 -0 -0 -0 -0 -0 0 0 0 0 -0 0 0 0 -0 0 0 0 0 0 0 0 0 0 0 0 1 1 1 1 1 1 1 1 1 1 1 1 0 0 1 0 0 0 0 0 0 0
0 0 0 -0 -0 -0 0 0 -0 -0 -0 -0 0 0 0 0 0 0 0 0 0 0 0 0 0 0 0 1 1 1 1 1 1 1 1 0 0 0 0 0 1 0 0 0 0 0 0 0 0
0 -0 -0 -0 -0 -0 0 0 -0 0 0 0 0 0 0 0 0 0 0 0 0 0 0 0 0 0 1 1 1 1 1 2 3 2 0 0 0 0 0 0 0 0 0 0 0 0 0 0 0
-0 -0 -0 -0 0 0 0 -0 -0 0 0 0 0 0 0 0 0 1 0 0 0 0 0 0 0 0 0 1 1 2 3 3 4 1 1 0 0 0 0 0 0 0 0 0 0 0 0 0 0
-0 -0 -0 -0 0 0 -0 -0 -0 0 0 0 0 0 0 0 0 1 1 0 0 0 1 1 1 1 2 2 4 3 2 4 4 1 0 0 0 0 0 0 0 0 0 0 0 0 0 0 0
-0 0 0 -0 0 0 -0 0 0 -0 0 0 0 0 0 0 1 1 0 0 -2 1 4 4 4 4 4 4 4 5 5 3 2 1 0 0 0 0 0 0 0 0 0 0 0 0 0 0 0
0 0 0 0 0 0 0 0 0 0 0 0 0 0 0 0 0 0 0 -0 -0 5 6 4 4 6 6 4 3 3 2 1 0 0 0 0 0 0 0 0 0 0 0 0 0 0 0 0 0
0 0 0 0 0 0 0 0 0 -0 0 0 0 0 0 -0 0 -0 0 0 3 2 2 2 2 2 4 2 2 1 1 1 1 0 0 0 0 0 0 0 0 0 0 0 0 0 0 0 0
0 -0 0 0 0 0 0 0 -0 -0 0 0 0 0 0 0 -0 0 1 1 1 1 1 1 1 1 1 1 2 2 2 1 0 0 0 0 0 0 0 0 0 0 0 0 0 0 0 0 0
0 0 0 0 0 0 -0 0 0 0 0 0 1 0 0 0 1 1 0 0 0 0 0 0 0 0 0 0 0 1 0 0 0 0 0 0 0 0 0 0 0 0 0 0 0 0 0 0 0
-0 0 0 0 0 0 -0 -0 0 0 0 0 0 0 0 0 0 0 0 0 0 0 0 0 0 0 0 0 0 0 0 0 0 0 0 0 0 0 0 0 0 0 0 0 0 0 0 0 0
0 0 0 0 0 0 -0 0 -0 0 0 0 0 0 0 0 0 0 0 0 0 0 0 0 0 0 0 0 0 0 0 0 0 0 0 0 0 0 0 0 0 0 0 0 0 0 0 0 0
0 0 0 0 -0 0 0 0 0 0 1 1 0 0 0 0 0 0 0 0 0 0 0 0 0 0 0 0 0 0 0 0 0 0 0 0 0 0 0 0 0 0 0 0 0 0 0 0 0
0 0 0 -0 0 0 0 0 0 0 0 0 0 0 0 0 0 0 0 0 0 0 0 0 0 0 0 0 0 0 0 0 0 0 0 0 0 0 0 0 0 0 0 0 0 0 0 0 0
-0 0 0 0 0 0 -0 0 0 0 0 0 0 0 0 0 0 0 0 0 0 0 0 0 0 0 0 0 0 0 0 0 0 0 0 0 0 0 0 0 0 0 0 0 0 0 0 0 0
0 -0 -0 0 0 0 0 0 0 0 0 0 0 0 0 0 0 0 0 0 0 0 0 0 0 0 0 0 0 0 0 0 0 0 0 0 0 0 0 0 0 0 0 0 0 0 0 0 0
0 0 -0 0 0 0 0 0 0 0 0 0 0 1 0 0 0 0 0 0 0 0 0 0 0 0 0 0 0 0 0 0 0 0 0 0 0 0 0 0 0 0 0 0 0 0 0 0 0
Wind_Speed_500mb
24 17 27 21 12 12 20 22 32 28 27 32 53 41 43 34 14 8 34 27 23 23 26 26 25 25 24 22 21 20 17 14 11 9 6 5 5 6 8 10 11 11 12 12 12 12 11 12 14
22 19 24 21 16 13 8 22 36 24 31 27 53 42 16 33 28 41 38 32 29 25 28 25 24 23 22 22 21 19 16 13 10 7 3 2 3 5 6 7 9 11 12 13 13 13 14 15 17
22 11 20 14 27 10 6 30 57 20 16 29 42 38 17 29 31 33 36 38 28 28 24 24 22 22 21 21 21 19 16 13 9 5 2 1 1 3 5 6 8 9 9 10 11 14 15 17 19
18 25 24 18 23 18 19 28 85 20 16 26 47 32 47 32 32 36 40 35 29 30 17 23 20 19 18 18 17 15 13 10 7 5 3 2 1 2 3 5 6 8 10 12 14 15 16 17 19
23 27 23 34 26 46 37 77 42 17 29 23 48 42 40 30 36 42 38 31 31 36 15 20 19 18 18 17 15 12 10 8 6 5 4 2 1 1 2 3 5 8 8 9 11 14 17 20 24
30 40 30 34 15 27 8 24 24 19 33 34 41 45 39 30 36 36 33 30 30 26 18 21 20 19 19 17 15 13 12 10 8 6 4 3 3 2 2 3 5 5 7 11 15 19 23 28 32
29 25 36 46 4 11 33 87 48 31 23 21 33 40 35 32 30 31 31 29 31 21 19 20 21 21 19 18 17 16 14 11 8 7 5 4 3 1 1 2 5 10 15 19 24 29 35 40 45
40 28 44 46 28 15 31 99 31 57 15 15 13 21 35 41 34 30 32 27 26 25 15 20 22 21 20 19 18 16 12 10 8 5 4 3 3 7 9 9 12 21 26 30 35 36 38 43 45
41 26 31 46 9 20 50 18 81 81 40 20 28 49 49 40 35 34 24 26 26 25 21 20 19 15 13 10 13 11 10 8 7 5 14 17 8 17 16 12 27 27 32 37 31 34 40 45 42
44 27 45 23 4 37 9 35 76 13 27 33 40 50 44 40 32 33 28 29 25 25 23 30 27 15 20 17 4 9 9 9 10 9 9 12 1 10 9 25 28 23 29 37 31 35 41 39 41
43 34 42 34 8 24 41 38 30 74 31 41 45 51 44 39 29 29 29 31 27 24 23 31 25 22 30 23 9 7 6 10 13 23 18 13 10 7 8 12 19 21 24 27 37 43 39 51 58
41 49 49 51 16 17 29 30 31 52 59 56 64 44 42 36 26 27 27 28 29 25 25 30 30 32 12 24 9 21 14 19 12 20 12 17 12 17 24 18 24 26 27 37 46 54 63 72 72
38 44 49 39 23 20 37 31 22 72 30 35 74 32 35 30 23 24 23 26 34 31 30 33 35 37 26 23 24 19 23 14 26 24 32 25 21 25 25 30 32 32 37 46 63 70 74 71 68
38 43 40 55 29 26 30 35 28 55 28 47 68 57 39 36 27 27 27 31 33 37 39 37 38 35 47 36 24 31 28 21 22 24 42 25 23 26 31 31 30 33 46 60 69 68 62 59 55
34 27 27 45 27 37 32 28 32 29 64 98 30 28 45 39 40 36 36 35 39 39 42 40 34 31 33 41 39 30 19 22 19 39 42 32 26 30 28 29 29 39 53 66 64 58 55 50 57
26 27 31 33 38 40 31 32 37 34 17 33 33 35 36 44 46 48 39 40 38 38 39 44 33 32 31 32 30 22 27 28 32 33 42 28 26 32 30 29 36 50 61 63 51 46 51 59 57
28 27 38 40 43 23 22 31 43 40 27 22 19 36 41 37 44 56 54 50 47 45 46 38 40 30 30 31 30 28 30 33 30 30 21 28 15 29 32 35 45 56 57 46 46 53 57 61 53
33 36 27 30 26 23 31 27 39 9 25 32 31 25 31 50 51 33 58 55 48 48 41 38 38 42 25 28 34 24 38 32 31 31 35 37 33 37 39 39 49 54 48 47 50 50 54 47 39
42 29 24 29 24 24 28 20 28 29 28 21 29 35 27 32 11 11 68 39 39 43 48 36 32 35 25 27 25 33 33 25 37 33 41 47 42 38 45 47 47 45 48 43 40 49 41 37 34
34 23 32 29 12 16 16 24 28 23 22 25 20 32 37 38 29 33 23 49 30 41 43 41 31 33 39 36 35 30 24 23 25 33 38 40 39 44 42 43 40 44 46 30 40 35 35 37 34
22 25 30 32 26 19 14 26 35 38 32 9 2 21 32 26 27 41 36 9 23 30 31 27 30 22 26 17 15 13 21 23 26 34 39 35 41 41 35 37 35 39 32 33 35 36 37 39 38
29 31 31 32 30 25 32 26 31 39 29 21 13 17 24 26 48 43 27 20 17 8 13 12 7 11 13 15 14 12 12 21 24 20 30 38 38 36 33 34 32 32 35 29 30 30 34 38 38
33 29 26 33 31 29 38 21 25 23 32 25 31 19 12 22 34 33 24 23 22 18 3 6 6 11 13 10 15 11 18 4 17 25 27 27 29 31 26 29 37 31 34 31 25 28 32 31 35
30 21 27 17 22 25 34 32 31 22 28 30 32 23 18 21 26 30 28 26 27 24 13 17 14 10 7 7 11 20 18 19 20 25 15 24 9 19 25 38 42 35 36 33 32 32 32 31 35
30 20 17 21 21 26 35 33 28 24 44 41 40 35 28 25 26 26 26 25 24 21 16 18 17 17 11 6 6 10 10 12 11 22 21 23 21 18 28 39 36 33 37 30 33 37 35 35 36
34 29 22 23 23 17 28 31 17 31 47 53 48 42 36 32 29 27 25 23 23 21 19 16 16 14 9 3 2 5 5 8 7 20 22 15 25 23 33 36 38 31 29 36 33 37 32 40 46
35 30 38 35 35 26 9 18 21 28 28 45 48 43 44 37 34 31 30 27 24 22 21 20 18 12 4 5 9 12 14 13 16 19 21 19 25 30 30 32 28 30 30 34 33 39 40 43 45
39 32 27 20 23 28 24 28 19 35 32 33 38 42 43 41 37 33 30 29 24 23 21 18 12 9 5 2 4 5 13 19 17 18 20 26 29 30 30 30 32 32 28 34 39 34 47 45 39
26 33 30 20 20 20 21 6 22 24 22 27 40 47 39 40 38 35 31 28 25 22 18 14 10 5 3 3 6 12 14 14 18 13 22 29 30 29 30 31 31 30 30 33 39 42 36 42 43
38 38 37 19 26 19 18 4 2 28 30 43 39 58 49 40 36 33 29 28 25 24 18 18 16 8 8 7 11 14 15 12 17 20 21 27 29 29 28 26 26 28 32 37 36 37 43 50 39
Wind_Direction_500mb
311 347 359 291 255 58 356 310 82 103 97 86 63 49 77 55 119 165 152 135 145 157 138 134 131 128 127 127 132 134 138 137 136 134 123 90 60 47 38 37 33 28 24 20 15 8 2 357 351
319 296 276 278 255 111 275 298 80 77 95 106 90 85 40 76 91 129 142 140 153 146 145 139 135 133 131 131 132 137 144 151 159 157 162 100 37 24 33 27 23 15 9 8 6 360 354 350 344
313 309 277 228 239 102 204 84 273 107 140 116 100 75 101 106 121 134 141 142 136 136 149 142 140 140 140 141 144 146 154 165 172 175 194 50 10 11 16 16 9 10 11 4 354 344 339 338 339
307 287 245 244 266 95 125 236 246 153 94 92 107 89 83 111 127 137 139 145 140 141 165 151 152 148 150 151 151 150 155 161 170 188 203 210 246 359 0 7 10 8 352 342 348 354 356 354 348
278 279 268 262 277 152 161 227 167 227 125 100 104 102 101 103 120 134 141 143 145 149 169 162 158 159 159 157 153 154 157 169 175 194 203 203 233 290 357 355 339 338 359 6 1 353 346 339 334
277 263 281 275 57 307 182 174 115 105 85 115 110 107 106 123 130 139 141 141 144 160 203 165 160 164 163 161 159 165 171 178 181 195 207 228 243 233 220 308 337 0 352 349 347 343 338 333 328
258 284 285 291 157 29 327 304 88 6 129 104 129 111 124 136 140 142 145 143 143 146 176 163 163 166 164 165 169 175 179 180 187 198 205 207 210 198 327 340 343 346 345 340 336 335 334 330 326
257 274 286 279 125 165 203 256 115 126 325 92 144 141 144 134 142 146 143 151 153 154 163 165 165 167 167 170 176 178 180 182 181 175 163 81 93 44 33 327 357 339 338 330 332 331 328 330 332
263 271 269 278 127 183 228 226 304 159 151 157 84 109 122 135 142 148 146 157 151 163 153 167 171 171 142 183 177 181 179 164 155 125 98 60 55 13 342 333 345 345 345 344 345 330 328 336 336
249 254 260 336 252 142 117 194 215 153 137 139 112 120 127 139 146 152 159 164 160 172 161 168 173 177 162 189 208 205 162 138 86 49 110 6 80 225 229 319 341 332 339 337 339 323 330 327 314
244 248 272 289 311 338 194 215 92 271 40 20 328 142 146 147 156 157 165 165 170 170 169 167 170 159 173 197 233 92 48 126 168 210 191 201 187 265 264 280 324 307 323 318 295 311 305 293 296
256 256 267 276 59 296 289 307 169 157 110 78 259 258 155 155 159 161 167 168 166 156 168 171 173 179 144 185 152 171 188 196 246 221 221 237 177 242 259 269 285 304 294 300 303 306 310 306 303
246 264 265 274 282 272 294 298 301 138 132 173 197 224 151 172 168 164 164 164 157 151 163 174 183 193 196 148 165 168 200 194 215 243 263 252 244 263 281 300 307 299 307 305 313 312 309 307 306
249 244 267 268 269 247 259 276 279 106 19 270 192 204 169 174 180 170 175 168 162 163 166 179 183 200 194 180 180 200 177 210 208 230 259 277 264 287 290 299 299 306 306 317 312 311 310 308 310
267 271 278 251 259 259 258 258 263 174 203 220 160 171 169 178 185 187 184 182 177 168 170 177 188 213 205 201 205 200 220 227 216 242 262 267 268 282 289 298 303 298 309 313 311 309 310 301 297
262 255 259 245 230 251 244 259 247 230 201 194 199 186 190 188 194 186 188 186 187 180 182 183 186 215 221 224 227 221 220 214 221 240 269 269 285 282 291 300 299 305 311 312 314 315 294 303 309
234 243 236 257 200 221 205 257 265 232 211 213 243 227 196 203 200 195 181 184 192 190 191 193 189 214 232 231 225 219 227 217 224 229 251 269 270 281 297 305 306 308 311 314 306 303 304 311 312
234 217 252 251 169 192 220 232 264 247 190 217 221 264 240 195 214 231 175 179 185 193 192 199 205 201 220 230 212 211 231 227 222 222 232 264 273 284 298 304 305 311 317 316 317 309 311 316 317
271 303 268 250 180 178 243 229 256 254 218 244 247 241 347 61 72 59 7 64 159 197 184 179 191 204 195 217 213 207 224 221 241 249 266 282 282 295 302 306 315 311 319 324 310 310 323 333 350
258 279 283 294 192 165 237 274 268 251 269 195 238 43 43 60 80 167 234 231 143 138 163 182 190 186 194 217 210 221 243 241 248 251 277 283 294 300 308 315 323 319 328 328 315 337 341 338 345
267 266 261 275 281 172 212 263 274 262 237 191 25 27 46 73 90 124 141 154 153 184 203 217 222 212 206 229 252 255 275 248 245 268 274 296 304 311 317 320 322 330 334 323 337 338 335 338 339
241 245 256 268 264 265 200 247 238 239 201 205 129 71 35 77 115 120 132 109 107 111 225 222 215 225 195 200 238 258 234 247 257 246 281 301 318 330 332 316 331 323 330 323 331 329 328 329 335
256 260 284 232 262 271 271 271 259 272 164 165 103 86 65 79 101 109 107 103 101 105 151 151 187 213 220 224 215 188 224 293 289 279 295 335 343 342 334 301 322 312 330 331 321 323 326 326 334
249 242 264 286 255 251 250 266 264 177 178 123 112 123 129 108 101 101 101 98 97 99 88 100 111 141 175 212 219 233 262 252 253 288 323 279 298 267 294 296 314 309 321 318 327 321 314 318 324
227 224 241 233 233 242 238 235 253 108 130 135 142 147 140 130 118 113 112 111 110 105 92 89 99 109 119 150 210 250 279 303 304 310 304 317 316 313 288 294 304 304 323 322 319 326 326 322 322
211 225 238 235 223 253 253 233 208 125 116 136 146 148 145 146 135 135 134 130 128 125 129 125 110 109 127 146 318 311 291 294 291 306 325 354 303 301 291 295 305 318 314 314 312 311 313 323 320
197 218 245 267 286 288 235 76 115 123 138 139 145 153 151 144 142 144 142 140 136 133 130 133 142 147 120 34 1 348 343 339 326 328 332 304 310 310 309 327 329 313 312 308 315 311 320 319 316
250 214 221 238 259 275 254 185 223 162 156 156 157 156 149 146 150 149 148 144 141 140 138 136 140 127 132 34 344 359 326 323 323 333 337 326 325 336 337 336 331 329 330 319 321 322 325 322 316
216 243 254 237 236 237 273 155 93 136 179 170 168 155 155 158 154 154 150 146 147 140 145 147 141 95 12 66 301 320 319 312 329 319 323 336 343 351 347 344 333 329 331 320 313 318 314 303 313
236 218 232 242 239 260 278 187 263 188 188 179 192 158 157 161 156 157 153 150 148 151 151 159 163 169 223 301 308 318 326 338 324 341 337 336 343 346 336 331 329 329 325 323 315 304 302 316 308
Wind_Speed_850mb
24 17 27 21 12 12 20 22 32 28 27 32 53 41 43 34 14 8 34 27 23 23 26 26 25 25 24 22 21 20 17 14 11 9 6 5 5 6 8 10 11 11 12 12 12 12 11 12 14
22 19 24 21 16 13 8 22 36 24 31 27 53 42 16 33 28 41 38 32 29 25 28 25 24 23 22 22 21 19 16 13 10 7 3 2 3 5 6 7 9 11 12 13 13 13 14 15 17
22 11 20 14 27 10 6 30 57 20 16 29 42 38 17 29 31 33 36 38 28 28 24 24 22 22 21 21 21 19 16 13 9 5 2 1 1 3 5 6 8 9 9 10 11 14 15 17 19
18 25 24 18 23 18 19 28 85 20 16 26 47 32 47 32 32 36 40 35 29 30 17 23 20 19 18 18 17 15 13 10 7 5 3 2 1 2 3 5 6 8 10 12 14 15 16 17 19
23 27 23 34 26 46 37 77 42 17 29 23 48 42 40 30 36 42 38 31 31 36 15 20 19 18 18 17 15 12 10 8 6 5 4 2 1 1 2 3 5 8 8 9 11 14 17 20 24
30 40 30 34 15 27 8 24 24 19 33 34 41 45 39 30 36 36 33 30 30 26 18 21 20 19 19 17 15 13 12 10 8 6 4 3 3 2 2 3 5 5 7 11 15 19 23 28 32
29 25 36 46 4 11 33 87 48 31 23 21 33 40 35 32 30 31 31 29 31 21 19 20 21 21 19 18 17 16 14 11 8 7 5 4 3 1 1 2 5 10 15 19 24 29 35 40 45
40 28 44 46 28 15 31 99 31 57 15 15 13 21 35 41 34 30 32 27 26 25 15 20 22 21 20 19 18 16 12 10 8 5 4 3 3 7 9 9 12 21 26 30 35 36 38 43 45
41 26 31 46 9 20 50 18 81 81 40 20 28 49 49 40 35 34 24 26 26 25 21 20 19 15 13 10 13 11 10 8 7 5 14 17 8 17 16 12 27 27 32 37 31 34 40 45 42
44 27 45 23 4 37 9 35 76 13 27 33 40 50 44 40 32 33 28 29 25 25 23 30 27 15 20 17 4 9 9 9 10 9 9 12 1 10 9 25 28 23 29 37 31 35 41 39 41
43 34 42 34 8 24 41 38 30 74 31 41 45 51 44 39 29 29 29 31 27 24 23 31 25 22 30 23 9 7 6 10 13 23 18 13 10 7 8 12 19 21 24 27 37 43 39 51 58
41 49 49 51 16 17 29 30 31 52 59 56 64 44 42 36 26 27 27 28 29 25 25 30 30 32 12 24 9 21 14 19 12 20 12 17 12 17 24 18 24 26 27 37 46 54 63 72 72
38 44 49 39 23 20 37 31 22 72 30 35 74 32 35 30 23 24 23 26 34 31 30 33 35 37 26 23 24 19 23 14 26 24 32 25 21 25 25 30 32 32 37 46 63 70 74 71 68
38 43 40 55 29 26 30 35 28 55 28 47 68 57 39 36 27 27 27 31 33 37 39 37 38 35 47 36 24 31 28 21 22 24 42 25 23 26 31 31 30 33 46 60 69 68 62 59 55
34 27 27 45 27 37 32 28 32 29 64 98 30 28 45 39 40 36 36 35 39 39 42 40 34 31 33 41 39 30 19 22 19 39 42 32 26 30 28 29 29 39 53 66 64 58 55 50 57
26 27 31 33 38 40 31 32 37 34 17 33 33 35 36 44 46 48 39 40 38 38 39 44 33 32 31 32 30 22 27 28 32 33 42 28 26 32 30 29 36 50 61 63 51 46 51 59 57
28 27 38 40 43 23 22 31 43 40 27 22 19 36 41 37 44 56 54 50 47 45 46 38 40 30 30 31 30 28 30 33 30 30 21 28 15 29 32 35 45 56 57 46 46 53 57 61 53
33 36 27 30 26 23 31 27 39 9 25 32 31 25 31 50 51 33 58 55 48 48 41 38 38 42 25 28 34 24 38 32 31 31 35 37 33 37 39 39 49 54 48 47 50 50 54 47 39
42 29 24 29 24 24 28 20 28 29 28 21 29 35 27 32 11 11 68 39 39 43 48 36 32 35 25 27 25 33 33 25 37 33 41 47 42 38 45 47 47 45 48 43 40 49 41 37 34
34 23 32 29 12 16 16 24 28 23 22 25 20 32 37 38 29 33 23 49 30 41 43 41 31 33 39 36 35 30 24 23 25 33 38 40 39 44 42 43 40 44 46 30 40 35 35 37 34
22 25 30 32 26 19 14 26 35 38 32 9 2 21 32 26 27 41 36 9 23 30 31 27 30 22 26 17 15 13 21 23 26 34 39 35 41 41 35 37 35 39 32 33 35 36 37 39 38
29 31 31 32 30 25 32 26 31 39 29 21 13 17 24 26 48 43 27 20 17 8 13 12 7 11 13 15 14 12 12 21 24 20 30 38 38 36 33 34 32 32 35 29 30 30 34 38 38
33 29 26 33 31 29 38 21 25 23 32 25 31 19 12 22 34 33 24 23 22 18 3 6 6 11 13 10 15 11 18 4 17 25 27 27 29 31 26 29 37 31 34 31 25 28 32 31 35
30 21 27 17 22 25 34 32 31 22 28 30 32 23 18 21 26 30 28 26 27 24 13 17 14 10 7 7 11 20 18 19 20 25 15 24 9 19 25 38 42 35 36 33 32 32 32 31 35
30 20 17 21 21 26 35 33 28 24 44 41 40 35 28 25 26 26 26 25 24 21 16 18 17 17 11 6 6 10 10 12 11 22 21 23 21 18 28 39 36 33 37 30 33 37 35 35 36
34 29 22 23 23 17 28 31 17 31 47 53 48 42 36 32 29 27 25 23 23 21 19 16 16 14 9 3 2 5 5 8 7 20 22 15 25 23 33 36 38 31 29 36 33 37 32 40 46
35 30 38 35 35 26 9 18 21 28 28 45 48 43 44 37 34 31 30 27 24 22 21 20 18 12 4 5 9 12 14 13 16 19 21 19 25 30 30 32 28 30 30 34 33 39 40 43 45
39 32 27 20 23 28 24 28 19 35 32 33 38 42 43 41 37 33 30 29 24 23 21 18 12 9 5 2 4 5 13 19 17 18 20 26 29 30 30 30 32 32 28 34 39 34 47 45 39
26 33 30 20 20 20 21 6 22 24 22 27 40 47 39 40 38 35 31 28 25 22 18 14 10 5 3 3 6 12 14 14 18 13 22 29 30 29 30 31 31 30 30 33 39 42 36 42 43
38 38 37 19 26 19 18 4 2 28 30 43 39 58 49 40 36 33 29 28 25 24 18 18 16 8 8 7 11 14 15 12 17 20 21 27 29 29 28 26 26 28 32 37 36 37 43 50 39
Wind_Direction_850mb
311 347 359 291 255 58 356 310 82 103 97 86 63 49 77 55 119 165 152 135 145 157 138 134 131 128 127 127 132 134 138 137 136 134 123 90 60 47 38 37 33 28 24 20 15 8 2 357 351
319 296 276 278 255 111 275 298 80 77 95 106 90 85 40 76 91 129 142 140 153 146 145 139 135 133 131 131 132 137 144 151 159 157 162 100 37 24 33 27 23 15 9 8 6 360 354 350 344
313 309 277 228 239 102 204 84 273 107 140 116 100 75 101 106 121 134 141 142 136 136 149 142 140 140 140 141 144 146 154 165 172 175 194 50 10 11 16 16 9 10 11 4 354 344 339 338 339
307 287 245 244 266 95 125 236 246 153 94 92 107 89 83 111 127 137 139 145 140 141 165 151 152 148 150 151 151 150 155 161 170 188 203 210 246 359 0 7 10 8 352 342 348 354 356 354 348
278 279 268 262 277 152 161 227 167 227 125 100 104 102 101 103 120 134 141 143 145 149 169 162 158 159 159 157 153 154 157 169 175 194 203 203 233 290 357 355 339 338 359 6 1 353 346 339 334
277 263 281 275 57 307 182 174 115 105 85 115 110 107 106 123 130 139 141 141 144 160 203 165 160 164 163 161 159 165 171 178 181 195 207 228 243 233 220 308 337 0 352 349 347 343 338 333 328
258 284 285 291 157 29 327 304 88 6 129 104 129 111 124 136 140 142 145 143 143 146 176 163 163 166 164 165 169 175 179 180 187 198 205 207 210 198 327 340 343 346 345 340 336 335 334 330 326
257 274 286 279 125 165 203 256 115 126 325 92 144 141 144 134 142 146 143 151 153 154 163 165 165 167 167 170 176 178 180 182 181 175 163 81 93 44 33 327 357 339 338 330 332 331 328 330 332
263 271 269 278 127 183 228 226 304 159 151 157 84 109 122 135 142 148 146 157 151 163 153 167 171 171 142 183 177 181 179 164 155 125 98 60 55 13 342 333 345 345 345 344 345 330 328 336 336
249 254 260 336 252 142 117 194 215 153 137 139 112 120 127 139 146 152 159 164 160 172 161 168 173 177 162 189 208 205 162 138 86 49 110 6 80 225 229 319 341 332 339 337 339 323 330 327 314
244 248 272 289 311 338 194 215 92 271 40 20 328 142 146 147 156 157 165 165 170 170 169 167 170 159 173 197 233 92 48 126 168 210 191 201 187 265 264 280 324 307 323 318 295 311 305 293 296
256 256 267 276 59 296 289 307 169 157 110 78 259 258 155 155 159 161 167 168 166 156 168 171 173 179 144 185 152 171 188 196 246 221 221 237 177 242 259 269 285 304 294 300 303 306 310 306 303
246 264 265 274 282 272 294 298 301 138 132 173 197 224 151 172 168 164 164 164 157 151 163 174 183 193 196 148 165 168 200 194 215 243 263 252 244 263 281 300 307 299 307 305 313 312 309 307 306
249 244 267 268 269 247 259 276 279 106 19 270 192 204 169 174 180 170 175 168 162 163 166 179 183 200 194 180 180 200 177 210 208 230 259 277 264 287 290 299 299 306 306 317 312 311 310 308 310
267 271 278 251 259 259 258 258 263 174 203 220 160 171 169 178 185 187 184 182 177 168 170 177 188 213 205 201 205 200 220 227 216 242 262 267 268 282 289 298 303 298 309 313 311 309 310 301 297
262 255 259 245 230 251 244 259 247 230 201 194 199 186 190 188 194 186 188 186 187 180 182 183 186 215 221 224 227 221 220 214 221 240 269 269 285 282 291 300 299 305 311 312 314 315 294 303 309
234 243 236 257 200 221 205 257 265 232 211 213 243 227 196 203 200 195 181 184 192 190 191 193 189 214 232 231 225 219 227 217 224 229 251 269 270 281 297 305 306 308 311 314 306 303 304 311 312
234 217 252 251 169 192 220 232 264 247 190 217 221 264 240 195 214 231 175 179 185 193 192 199 205 201 220 230 212 211 231 227 222 222 232 264 273 284 298 304 305 311 317 316 317 309 311 316 317
271 303 268 250 180 178 243 229 256 254 218 244 247 241 347 61 72 59 7 64 159 197 184 179 191 204 195 217 213 207 224 221 241 249 266 282 282 295 302 306 315 311 319 324 310 310 323 333 350
258 279 283 294 192 165 237 274 268 251 269 195 238 43 43 60 80 167 234 231 143 138 163 182 190 186 194 217 210 221 243 241 248 251 277 283 294 300 308 315 323 319 328 328 315 337 341 338 345
267 266 261 275 281 172 212 263 274 262 237 191 25 27 46 73 90 124 141 154 153 184 203 217 222 212 206 229 252 255 275 248 245 268 274 296 304 311 317 320 322 330 334 323 337 338 335 338 339
241 245 256 268 264 265 200 247 238 239 201 205 129 71 35 77 115 120 132 109 107 111 225 222 215 225 195 200 238 258 234 247 257 246 281 301 318 330 332 316 331 323 330 323 331 329 328 329 335
256 260 284 232 262 271 271 271 259 272 164 165 103 86 65 79 101 109 107 103 101 105 151 151 187 213 220 224 215 188 224 293 289 279 295 335 343 342 334 301 322 312 330 331 321 323 326 326 334
249 242 264 286 255 251 250 266 264 177 178 123 112 123 129 108 101 101 101 98 97 99 88 100 111 141 175 212 219 233 262 252 253 288 323 279 298 267 294 296 314 309 321 318 327 321 314 318 324
227 224 241 233 233 242 238 235 253 108 130 135 142 147 140 130 118 113 112 111 110 105 92 89 99 109 119 150 210 250 279 303 304 310 304 317 316 313 288 294 304 304 323 322 319 326 326 322 322
211 225 238 235 223 253 253 233 208 125 116 136 146 148 145 146 135 135 134 130 128 125 129 125 110 109 127 146 318 311 291 294 291 306 325 354 303 301 291 295 305 318 314 314 312 311 313 323 320
197 218 245 267 286 288 235 76 115 123 138 139 145 153 151 144 142 144 142 140 136 133 130 133 142 147 120 34 1 348 343 339 326 328 332 304 310 310 309 327 329 313 312 308 315 311 320 319 316
250 214 221 238 259 275 254 185 223 162 156 156 157 156 149 146 150 149 148 144 141 140 138 136 140 127 132 34 344 359 326 323 323 333 337 326 325 336 337 336 331 329 330 319 321 322 325 322 316
216 243 254 237 236 237 273 155 93 136 179 170 168 155 155 158 154 154 150 146 147 140 145 147 141 95 12 66 301 320 319 312 329 319 323 336 343 351 347 344 333 329 331 320 313 318 314 303 313
236 218 232 242 239 260 278 187 263 188 188 179 192 158 157 161 156 157 153 150 148 151 151 159 163 169 223 301 308 318 326 338 324 341 337 336 343 346 336 331 329 329 325 323 315 304 302 316 308